| time (UTC) | temp F | wind direction | speed MPH | gust MPH | rain 1hr in | rain 24hr in | rain mn in | humidity % | barometer mb |
| 20260506034247 | 21 | 291 | 0.0 | 0.0 | 0.00 | 0.04 | 0.04 | 97 | 1017.1 |
| 20260506033744 | 21 | 291 | 0.0 | 0.0 | 0.00 | 0.04 | 0.04 | 97 | 1017.3 |
| 20260506033241 | 21 | 291 | 0.0 | 0.0 | 0.00 | 0.04 | 0.04 | 97 | 1017.1 |
| 20260506032738 | 21 | 291 | 0.0 | 0.0 | 0.00 | 0.04 | 0.04 | 97 | 1017.0 |
| 20260506032235 | 21 | 291 | 0.0 | 0.0 | 0.00 | 0.04 | 0.04 | 97 | 1017.0 |
| 20260506031732 | 21 | 291 | 0.0 | 0.0 | 0.00 | 0.04 | 0.04 | 97 | 1016.9 |
| 20260506031229 | 21 | 291 | 0.0 | 0.0 | 0.00 | 0.04 | 0.04 | 97 | 1016.8 |
| 20260506030727 | 21 | 291 | 0.0 | 0.0 | 0.00 | 0.04 | 0.04 | 97 | 1016.6 |
| 20260506030225 | 21 | 291 | 0.0 | 0.0 | 0.00 | 0.04 | 0.04 | 97 | 1016.8 |
| 20260506025721 | 21 | 291 | 0.0 | 0.0 | 0.00 | 0.04 | 0.04 | 97 | 1016.5 |
| 20260506025218 | 21 | 291 | 0.0 | 0.0 | 0.00 | 0.04 | 0.04 | 97 | 1016.5 |
| 20260506024715 | 21 | 291 | 0.0 | 0.0 | 0.00 | 0.04 | 0.04 | 97 | 1016.4 |
| 20260506024211 | 21 | 271 | 0.0 | 0.0 | 0.00 | 0.04 | 0.04 | 97 | 1016.4 |
| 20260506023707 | 21 | 271 | 0.0 | 0.0 | 0.00 | 0.04 | 0.04 | 97 | 1016.6 |
| 20260506023205 | 21 | 291 | 0.0 | 0.0 | 0.00 | 0.04 | 0.04 | 97 | 1016.1 |
| 20260506022702 | 21 | 271 | 0.0 | 0.0 | 0.00 | 0.04 | 0.04 | 97 | 1016.2 |
| 20260506022159 | 21 | 304 | 0.0 | 0.0 | 0.00 | 0.04 | 0.04 | 97 | 1016.1 |
| 20260506021652 | 21 | 274 | 0.0 | 0.0 | 0.00 | 0.04 | 0.04 | 97 | 1016.2 |
| 20260506021149 | 21 | 278 | 0.0 | 0.0 | 0.00 | 0.04 | 0.04 | 97 | 1016.1 |
| 20260506020645 | 21 | 278 | 0.0 | 0.0 | 0.00 | 0.04 | 0.04 | 97 | 1016.0 |
| 20260506020143 | 21 | 285 | 0.0 | 0.0 | 0.00 | 0.04 | 0.04 | 97 | 1016.0 |
| 20260506015641 | 22 | 283 | 0.0 | 0.0 | 0.00 | 0.04 | 0.04 | 98 | 1015.7 |
| 20260506015137 | 22 | 271 | 0.0 | 0.0 | 0.00 | 0.04 | 0.04 | 98 | 1015.8 |
| 20260506014635 | 22 | 297 | 0.0 | 0.0 | 0.00 | 0.04 | 0.04 | 98 | 1015.6 |
| 20260506014130 | 22 | 275 | 0.0 | 0.0 | 0.00 | 0.04 | 0.04 | 98 | 1015.8 |
| 20260506013628 | 22 | 262 | 0.0 | 0.0 | 0.00 | 0.04 | 0.04 | 98 | 1015.7 |
| 20260506013125 | 22 | 261 | 0.0 | 0.0 | 0.00 | 0.04 | 0.04 | 98 | 1015.7 |
| 20260506012621 | 22 | 310 | 0.0 | 0.0 | 0.00 | 0.04 | 0.04 | 98 | 1015.4 |
| 20260506012117 | 23 | 278 | 0.0 | 0.0 | 0.00 | 0.04 | 0.04 | 98 | 1015.6 |
| 20260506011610 | 23 | 313 | 0.0 | 0.0 | 0.00 | 0.04 | 0.04 | 98 | 1015.6 |
| 20260506011106 | 22 | 272 | 0.0 | 0.0 | 0.00 | 0.04 | 0.04 | 98 | 1015.7 |
| 20260506010605 | 22 | 284 | 0.0 | 0.0 | 0.00 | 0.04 | 0.04 | 98 | 1015.4 |
| 20260506005559 | 23 | 271 | 0.0 | 0.0 | 0.00 | 0.04 | 0.04 | 98 | 1015.8 |
| 20260506005055 | 23 | 277 | 0.0 | 0.0 | 0.00 | 0.04 | 0.04 | 98 | 1015.7 |
| 20260506004552 | 23 | 310 | 0.0 | 0.0 | 0.00 | 0.04 | 0.04 | 98 | 1015.8 |
| 20260506004048 | 23 | 271 | 0.0 | 0.0 | 0.00 | 0.04 | 0.04 | 98 | 1015.4 |
| 20260506003545 | 23 | 291 | 0.0 | 0.0 | 0.00 | 0.04 | 0.04 | 98 | 1015.6 |
| 20260506003041 | 23 | 272 | 0.0 | 0.0 | 0.00 | 0.04 | 0.04 | 98 | 1015.4 |
| 20260506002537 | 23 | 268 | 0.0 | 0.0 | 0.00 | 0.04 | 0.04 | 98 | 1015.7 |
| 20260506002033 | 23 | 306 | 3.0 | 3.0 | 0.00 | 0.04 | 0.04 | 98 | 1015.4 |
| 20260506001530 | 24 | 269 | 0.0 | 1.0 | 0.00 | 0.04 | 0.04 | 98 | 1015.4 |
| 20260506001027 | 24 | 293 | 2.0 | 6.0 | 0.00 | 0.04 | 0.04 | 98 | 1015.3 |
| 20260506000525 | 24 | 283 | 1.0 | 3.0 | 0.00 | 0.04 | 0.04 | 99 | 1015.4 |
| 20260506000022 | 24 | 279 | 0.0 | 3.0 | 0.00 | 0.04 | 0.04 | 99 | 1015.3 |
| 20260505235520 | 24 | 301 | 0.0 | 1.0 | 0.00 | 0.04 | 0.04 | 99 | 1015.4 |
| 20260505235016 | 24 | 290 | 2.0 | 3.0 | 0.00 | 0.04 | 0.04 | 99 | 1015.2 |
| 20260505234513 | 24 | 294 | 1.0 | 2.0 | 0.00 | 0.04 | 0.04 | 99 | 1015.4 |
| 20260505234010 | 24 | 299 | 1.0 | 1.0 | 0.00 | 0.04 | 0.04 | 99 | 1015.3 |
| 20260505233508 | 25 | 277 | 1.0 | 2.0 | 0.00 | 0.04 | 0.04 | 99 | 1015.2 |
| 20260505233005 | 25 | 279 | 1.0 | 3.0 | 0.00 | 0.04 | 0.04 | 99 | 1015.0 |
| 20260505232503 | 25 | 288 | 1.0 | 4.0 | 0.00 | 0.04 | 0.04 | 99 | 1015.2 |
| 20260505232000 | 25 | 275 | 1.0 | 2.0 | 0.00 | 0.04 | 0.04 | 99 | 1015.3 |
| 20260505231457 | 25 | 278 | 0.0 | 3.0 | 0.00 | 0.04 | 0.04 | 99 | 1015.3 |
| 20260505230955 | 25 | 282 | 1.0 | 3.0 | 0.00 | 0.04 | 0.04 | 99 | 1015.2 |
| 20260505230452 | 25 | 292 | 4.0 | 6.0 | 0.00 | 0.04 | 0.04 | 99 | 1014.8 |
| 20260505225948 | 25 | 15 | 2.0 | 3.0 | 0.00 | 0.04 | 0.04 | 99 | 1014.9 |
| 20260505225446 | 26 | 341 | 3.0 | 6.0 | 0.00 | 0.04 | 0.04 | 99 | 1014.9 |
| 20260505224942 | 26 | 278 | 4.0 | 4.0 | 0.00 | 0.04 | 0.04 | 99 | 1015.0 |
| 20260505224439 | 26 | 289 | 1.0 | 4.0 | 0.00 | 0.04 | 0.04 | 99 | 1014.4 |
| 20260505223936 | 26 | 30 | 3.0 | 3.0 | 0.00 | 0.04 | 0.04 | 99 | 1014.9 |
| 20260505223433 | 26 | 320 | 0.0 | 1.0 | 0.00 | 0.04 | 0.04 | 99 | 1014.9 |
| 20260505222929 | 26 | 272 | 0.0 | 1.0 | 0.00 | 0.04 | 0.04 | 99 | 1015.0 |
| 20260505222425 | 26 | 287 | 2.0 | 3.0 | 0.00 | 0.04 | 0.04 | 99 | 1015.2 |
| 20260505221921 | 26 | 285 | 2.0 | 3.0 | 0.00 | 0.04 | 0.04 | 99 | 1015.2 |
| 20260505221419 | 26 | 299 | 2.0 | 3.0 | 0.00 | 0.04 | 0.04 | 99 | 1014.6 |
| 20260505220916 | 26 | 187 | 2.0 | 6.0 | 0.00 | 0.04 | 0.04 | 99 | 1014.6 |
| 20260505220413 | 26 | 137 | 3.0 | 6.0 | 0.00 | 0.04 | 0.04 | 99 | 1014.5 |
| 20260505215910 | 27 | 325 | 3.0 | 6.0 | 0.00 | 0.04 | 0.04 | 99 | 1014.4 |
| 20260505215408 | 26 | 333 | 2.0 | 3.0 | 0.00 | 0.04 | 0.04 | 99 | 1014.8 |
| 20260505214906 | 27 | 308 | 2.0 | 3.0 | 0.00 | 0.04 | 0.04 | 99 | 1014.8 |
| 20260505214403 | 26 | 273 | 1.0 | 2.0 | 0.00 | 0.04 | 0.04 | 99 | 1014.6 |
| 20260505213900 | 27 | 64 | 1.0 | 3.0 | 0.00 | 0.04 | 0.04 | 99 | 1014.6 |
| 20260505213358 | 27 | 305 | 0.0 | 2.0 | 0.00 | 0.04 | 0.04 | 99 | 1014.6 |
| 20260505212854 | 27 | 336 | 4.0 | 4.0 | 0.00 | 0.04 | 0.04 | 99 | 1014.8 |
| 20260505212351 | 27 | 265 | 0.0 | 6.0 | 0.00 | 0.04 | 0.04 | 99 | 1014.9 |
| 20260505211847 | 27 | 326 | 0.0 | 2.0 | 0.00 | 0.04 | 0.04 | 99 | 1014.8 |
| 20260505211345 | 28 | 238 | 2.0 | 3.0 | 0.00 | 0.04 | 0.04 | 99 | 1014.6 |
| 20260505210841 | 28 | 318 | 2.0 | 4.0 | 0.00 | 0.04 | 0.04 | 99 | 1014.9 |
| 20260505210338 | 27 | 325 | 4.0 | 6.0 | 0.00 | 0.04 | 0.04 | 99 | 1015.2 |
| 20260505205835 | 26 | 270 | 1.0 | 4.0 | 0.00 | 0.04 | 0.04 | 99 | 1015.0 |
| 20260505205334 | 27 | 351 | 2.0 | 3.0 | 0.00 | 0.04 | 0.04 | 99 | 1015.0 |
| 20260505204830 | 27 | 266 | 1.0 | 2.0 | 0.00 | 0.04 | 0.04 | 99 | 1015.3 |
| 20260505204328 | 27 | 293 | 2.0 | 2.0 | 0.00 | 0.04 | 0.04 | 99 | 1015.4 |
| 20260505203825 | 27 | 346 | 2.0 | 4.0 | 0.00 | 0.04 | 0.04 | 99 | 1015.6 |
| 20260505203321 | 27 | 284 | 0.0 | 3.0 | 0.00 | 0.04 | 0.04 | 99 | 1015.6 |
| 20260505202818 | 27 | 304 | 2.0 | 3.0 | 0.00 | 0.04 | 0.04 | 99 | 1015.6 |
| 20260505202314 | 27 | 255 | 5.0 | 6.0 | 0.00 | 0.04 | 0.04 | 99 | 1015.7 |
| 20260505201811 | 27 | 59 | 4.0 | 7.0 | 0.00 | 0.04 | 0.04 | 99 | 1016.1 |
| 20260505201308 | 27 | 267 | 2.0 | 4.0 | 0.00 | 0.04 | 0.04 | 99 | 1015.8 |
| 20260505200807 | 27 | 47 | 4.0 | 7.0 | 0.00 | 0.04 | 0.04 | 99 | 1015.8 |
| 20260505200303 | 27 | 184 | 3.0 | 4.0 | 0.00 | 0.04 | 0.04 | 99 | 1015.7 |
| 20260505195758 | 26 | 226 | 1.0 | 7.0 | 0.00 | 0.04 | 0.04 | 99 | 1015.6 |
| 20260505195256 | 26 | 118 | 4.0 | 9.0 | 0.00 | 0.04 | 0.04 | 99 | 1015.8 |
| 20260505194753 | 27 | 122 | 2.0 | 4.0 | 0.00 | 0.04 | 0.04 | 99 | 1016.0 |
| 20260505194250 | 27 | 220 | 2.0 | 7.0 | 0.00 | 0.04 | 0.04 | 99 | 1016.0 |
| 20260505193745 | 27 | 261 | 0.0 | 8.0 | 0.00 | 0.04 | 0.04 | 99 | 1015.6 |
| 20260505193243 | 27 | 165 | 2.0 | 7.0 | 0.00 | 0.04 | 0.04 | 99 | 1015.6 |
| 20260505192741 | 28 | 266 | 2.0 | 3.0 | 0.00 | 0.04 | 0.04 | 99 | 1015.7 |
| 20260505192239 | 27 | 90 | 4.0 | 4.0 | 0.00 | 0.04 | 0.04 | 99 | 1016.0 |
| 20260505191737 | 27 | 323 | 1.0 | 3.0 | 0.00 | 0.04 | 0.04 | 99 | 1015.8 |
| 20260505191235 | 27 | 64 | 4.0 | 7.0 | 0.00 | 0.04 | 0.04 | 99 | 1016.0 |
| 20260505190731 | 26 | 101 | 3.0 | 7.0 | 0.00 | 0.04 | 0.04 | 99 | 1016.0 |
| 20260505190231 | 26 | 52 | 3.0 | 7.0 | 0.00 | 0.04 | 0.04 | 99 | 1016.1 |
| 20260505185728 | 27 | 266 | 1.0 | 4.0 | 0.00 | 0.04 | 0.04 | 99 | 1016.1 |
| 20260505185224 | 26 | 249 | 0.0 | 6.0 | 0.00 | 0.04 | 0.04 | 99 | 1016.2 |
| 20260505184720 | 27 | 124 | 2.0 | 4.0 | 0.00 | 0.04 | 0.04 | 99 | 1016.2 |
| 20260505184218 | 27 | 71 | 4.0 | 7.0 | 0.00 | 0.04 | 0.04 | 99 | 1016.2 |
| 20260505183714 | 27 | 147 | 1.0 | 4.0 | 0.00 | 0.04 | 0.04 | 99 | 1016.1 |
| 20260505183212 | 27 | 287 | 3.0 | 7.0 | 0.00 | 0.04 | 0.04 | 99 | 1016.5 |
| 20260505182708 | 27 | 353 | 1.0 | 4.0 | 0.00 | 0.04 | 0.04 | 99 | 1016.6 |
| 20260505182205 | 27 | 19 | 3.0 | 6.0 | 0.00 | 0.04 | 0.04 | 99 | 1016.4 |
| 20260505181701 | 28 | 137 | 3.0 | 6.0 | 0.00 | 0.04 | 0.04 | 99 | 1016.5 |
| 20260505181159 | 26 | 232 | 2.0 | 7.0 | 0.00 | 0.04 | 0.04 | 99 | 1016.4 |
| 20260505180655 | 27 | 238 | 2.0 | 4.0 | 0.00 | 0.04 | 0.04 | 99 | 1016.4 |
| 20260505180153 | 28 | 39 | 2.0 | 4.0 | 0.00 | 0.04 | 0.04 | 99 | 1016.6 |
| 20260505175648 | 27 | 260 | 0.0 | 3.0 | 0.00 | 0.04 | 0.04 | 99 | 1016.8 |
| 20260505175145 | 27 | 334 | 4.0 | 6.0 | 0.00 | 0.04 | 0.04 | 99 | 1016.6 |
| 20260505174642 | 27 | 20 | 2.0 | 4.0 | 0.00 | 0.04 | 0.04 | 99 | 1016.8 |
| 20260505174137 | 27 | 122 | 5.0 | 8.0 | 0.00 | 0.04 | 0.04 | 99 | 1016.8 |
| 20260505173635 | 27 | 218 | 3.0 | 6.0 | 0.00 | 0.04 | 0.04 | 99 | 1016.6 |
| 20260505173131 | 27 | 327 | 2.0 | 4.0 | 0.00 | 0.04 | 0.04 | 99 | 1016.9 |
| 20260505172629 | 26 | 68 | 1.0 | 4.0 | 0.00 | 0.04 | 0.04 | 99 | 1017.0 |
| 20260505172126 | 26 | 8 | 5.0 | 8.0 | 0.00 | 0.04 | 0.04 | 99 | 1016.8 |
| 20260505171620 | 26 | 297 | 1.0 | 3.0 | 0.00 | 0.04 | 0.04 | 99 | 1016.8 |
| 20260505171118 | 27 | 236 | 1.0 | 3.0 | 0.00 | 0.04 | 0.04 | 99 | 1016.9 |
| 20260505170615 | 26 | 283 | 0.0 | 6.0 | 0.00 | 0.04 | 0.04 | 99 | 1016.9 |
| 20260505170111 | 27 | 102 | 4.0 | 7.0 | 0.00 | 0.04 | 0.04 | 99 | 1017.1 |
| 20260505165606 | 26 | 2 | 2.0 | 3.0 | 0.00 | 0.04 | 0.04 | 99 | 1016.9 |
| 20260505165102 | 26 | 314 | 4.0 | 7.0 | 0.00 | 0.04 | 0.04 | 99 | 1017.1 |
| 20260505164558 | 27 | 347 | 3.0 | 4.0 | 0.00 | 0.04 | 0.04 | 99 | 1017.0 |
| 20260505164056 | 26 | 299 | 1.0 | 4.0 | 0.00 | 0.04 | 0.04 | 99 | 1017.3 |
| 20260505163554 | 26 | 127 | 3.0 | 3.0 | 0.05 | 0.04 | 0.04 | 99 | 1017.1 |
| 20260505163051 | 26 | 251 | 1.0 | 2.0 | 0.05 | 0.04 | 0.04 | 99 | 1017.3 |
| 20260505162544 | 26 | 307 | 3.0 | 3.0 | 0.07 | 0.03 | 0.03 | 99 | 1017.3 |
| 20260505162041 | 26 | 296 | 2.0 | 4.0 | 0.07 | 0.03 | 0.03 | 99 | 1017.5 |
| 20260505161538 | 26 | 268 | 0.0 | 1.0 | 0.12 | 0.02 | 0.02 | 99 | 1017.4 |
| 20260505161035 | 26 | 290 | 1.0 | 3.0 | 0.12 | 0.02 | 0.02 | 99 | 1017.5 |
| 20260505160533 | 27 | 325 | 1.0 | 3.0 | 0.00 | 0.00 | 0.00 | 99 | 1017.3 |
| 20260505153003 | 26 | 294 | 0.0 | 3.0 | 0.00 | 0.00 | 0.00 | 99 | 1017.4 |
| 20260505152501 | 27 | 94 | 2.0 | 3.0 | 0.00 | 0.00 | 0.00 | 99 | 1017.4 |
| 20260505151955 | 27 | 215 | 1.0 | 1.0 | 0.00 | 0.00 | 0.00 | 99 | 1017.3 |
| 20260505151445 | 27 | 305 | 2.0 | 3.0 | 0.00 | 0.00 | 0.00 | 99 | 1017.4 |
| 20260505150942 | 27 | 335 | 2.0 | 4.0 | 0.00 | 0.00 | 0.00 | 99 | 1017.1 |
| 20260505150434 | 26 | 283 | 0.0 | 2.0 | 0.00 | 0.00 | 0.00 | 99 | 1017.7 |
| 20260505140403 | 26 | 279 | 0.0 | 3.0 | 0.00 | 0.00 | 0.00 | 99 | 1017.8 |
| 20260505124811 | 26 | 296 | 2.0 | 3.0 | 0.00 | 0.00 | 0.00 | 99 | 1017.3 |
| 20260505124308 | 27 | 276 | 1.0 | 2.0 | 0.00 | 0.00 | 0.00 | 99 | 1017.0 |
| 20260505123804 | 27 | 267 | 0.0 | 2.0 | 0.00 | 0.00 | 0.00 | 99 | 1017.1 |
| 20260505123300 | 27 | 294 | 3.0 | 4.0 | 0.00 | 0.00 | 0.00 | 99 | 1016.9 |
| 20260505122756 | 27 | 250 | 2.0 | 3.0 | 0.00 | 0.00 | 0.00 | 99 | 1017.1 |
| 20260505122254 | 27 | 21 | 2.0 | 3.0 | 0.00 | 0.00 | 0.00 | 99 | 1017.0 |
| 20260505121750 | 27 | 277 | 1.0 | 3.0 | 0.00 | 0.00 | 0.00 | 99 | 1017.4 |
| 20260505121247 | 27 | 297 | 1.0 | 2.0 | 0.00 | 0.00 | 0.00 | 99 | 1017.3 |
| 20260505120744 | 27 | 289 | 2.0 | 4.0 | 0.00 | 0.00 | 0.00 | 99 | 1017.1 |
| 20260505120240 | 27 | 287 | 3.0 | 6.0 | 0.00 | 0.00 | 0.00 | 99 | 1017.3 |
| 20260505115739 | 28 | 282 | 3.0 | 4.0 | 0.00 | 0.00 | 0.00 | 99 | 1017.1 |
| 20260505115236 | 27 | 58 | 3.0 | 6.0 | 0.00 | 0.00 | 0.00 | 99 | 1017.0 |
| 20260505114734 | 28 | 355 | 2.0 | 6.0 | 0.00 | 0.00 | 0.00 | 99 | 1016.9 |
| 20260505114229 | 28 | 335 | 3.0 | 7.0 | 0.00 | 0.00 | 0.00 | 99 | 1017.1 |
| 20260505113726 | 28 | 318 | 1.0 | 2.0 | 0.00 | 0.00 | 0.00 | 99 | 1016.8 |
| 20260505113223 | 29 | 345 | 2.0 | 4.0 | 0.00 | 0.00 | 0.00 | 99 | 1017.0 |
| 20260505112719 | 29 | 318 | 1.0 | 4.0 | 0.00 | 0.00 | 0.00 | 99 | 1017.1 |
| 20260505112217 | 29 | 275 | 2.0 | 6.0 | 0.00 | 0.00 | 0.00 | 99 | 1017.1 |
| 20260505111712 | 30 | 255 | 0.0 | 2.0 | 0.00 | 0.00 | 0.00 | 99 | 1016.8 |
| 20260505111208 | 31 | 3 | 6.0 | 7.0 | 0.00 | 0.00 | 0.00 | 99 | 1016.8 |
| 20260505110704 | 31 | 347 | 2.0 | 4.0 | 0.00 | 0.00 | 0.00 | 99 | 1016.8 |
| 20260505110202 | 31 | 1 | 3.0 | 3.0 | 0.00 | 0.00 | 0.00 | 99 | 1016.5 |
| 20260505102137 | 33 | 281 | 0.0 | 0.0 | 0.00 | 0.00 | 0.00 | 99 | 1016.6 |
| 20260505101636 | 33 | 311 | 0.0 | 0.0 | 0.00 | 0.00 | 0.00 | 99 | 1016.8 |
| 20260505101132 | 33 | 292 | 0.0 | 0.0 | 0.00 | 0.00 | 0.00 | 99 | 1016.6 |
| 20260505100628 | 33 | 288 | 0.0 | 0.0 | 0.00 | 0.00 | 0.00 | 99 | 1016.2 |
| 20260505100125 | 33 | 242 | 0.0 | 2.0 | 0.00 | 0.00 | 0.00 | 99 | 1016.4 |
| 20260505095621 | 33 | 266 | 0.0 | 1.0 | 0.00 | 0.00 | 0.00 | 99 | 1016.5 |
| 20260505095118 | 33 | 282 | 0.0 | 1.0 | 0.00 | 0.00 | 0.00 | 99 | 1016.5 |
| 20260505094614 | 33 | 283 | 1.0 | 3.0 | 0.00 | 0.00 | 0.00 | 99 | 1016.4 |
| 20260505094111 | 33 | 270 | 0.0 | 0.0 | 0.00 | 0.00 | 0.00 | 99 | 1016.8 |
| 20260505093607 | 33 | 270 | 0.0 | 0.0 | 0.00 | 0.00 | 0.00 | 99 | 1016.6 |
| 20260505093104 | 33 | 280 | 0.0 | 0.0 | 0.00 | 0.00 | 0.00 | 99 | 1016.6 |
| 20260505092601 | 33 | 297 | 2.0 | 2.0 | 0.00 | 0.00 | 0.00 | 99 | 1016.9 |
| 20260505092100 | 33 | 259 | 0.0 | 0.0 | 0.00 | 0.00 | 0.00 | 99 | 1016.6 |
| 20260505091556 | 33 | 267 | 0.0 | 2.0 | 0.00 | 0.00 | 0.00 | 99 | 1016.6 |
| 20260505091055 | 33 | 275 | 0.0 | 0.0 | 0.00 | 0.00 | 0.00 | 99 | 1016.8 |
| 20260505090552 | 33 | 271 | 0.0 | 0.0 | 0.00 | 0.00 | 0.00 | 99 | 1016.8 |
| 20260505090050 | 33 | 301 | 0.0 | 0.0 | 0.00 | 0.00 | 0.00 | 99 | 1016.6 |
| 20260505085547 | 33 | 292 | 0.0 | 0.0 | 0.00 | 0.00 | 0.00 | 99 | 1016.6 |
| 20260505085046 | 33 | 289 | 0.0 | 0.0 | 0.00 | 0.00 | 0.00 | 99 | 1016.8 |
| 20260505084543 | 33 | 272 | 0.0 | 0.0 | 0.00 | 0.00 | 0.00 | 99 | 1016.9 |
| 20260505084041 | 33 | 264 | 0.0 | 0.0 | 0.00 | 0.00 | 0.00 | 99 | 1017.1 |
| 20260505083538 | 33 | 269 | 0.0 | 0.0 | 0.00 | 0.00 | 0.00 | 99 | 1017.0 |
| 20260505083035 | 33 | 267 | 0.0 | 0.0 | 0.00 | 0.00 | 0.00 | 99 | 1017.0 |
| 20260505082530 | 33 | 262 | 0.0 | 0.0 | 0.00 | 0.00 | 0.00 | 99 | 1017.1 |
| 20260505082027 | 33 | 262 | 0.0 | 0.0 | 0.00 | 0.00 | 0.00 | 99 | 1017.1 |
| 20260505081524 | 33 | 266 | 0.0 | 0.0 | 0.00 | 0.00 | 0.00 | 99 | 1017.1 |
| 20260505081021 | 33 | 266 | 0.0 | 0.0 | 0.00 | 0.00 | 0.00 | 99 | 1017.1 |
| 20260505080517 | 33 | 265 | 0.0 | 0.0 | 0.00 | 0.00 | 0.00 | 99 | 1017.0 |
| 20260505080014 | 33 | 252 | 0.0 | 0.0 | 0.00 | 0.00 | 0.00 | 99 | 1017.3 |
| 20260505075510 | 33 | 253 | 0.0 | 0.0 | 0.00 | 0.00 | 0.00 | 99 | 1017.4 |
| 20260505075007 | 33 | 253 | 0.0 | 0.0 | 0.00 | 0.00 | 0.00 | 99 | 1017.3 |
| 20260505074504 | 33 | 249 | 0.0 | 0.0 | 0.00 | 0.00 | 0.00 | 99 | 1017.4 |
| 20260505074001 | 33 | 251 | 0.0 | 0.0 | 0.00 | 0.00 | 0.00 | 99 | 1017.5 |
| 20260505073459 | 33 | 259 | 0.0 | 0.0 | 0.00 | 0.00 | 0.00 | 99 | 1017.4 |
| 20260505072956 | 33 | 252 | 0.0 | 0.0 | 0.00 | 0.00 | 0.00 | 99 | 1017.4 |
| 20260505072452 | 33 | 248 | 0.0 | 0.0 | 0.00 | 0.00 | 0.00 | 99 | 1017.5 |
| 20260505071948 | 33 | 246 | 0.0 | 0.0 | 0.00 | 0.00 | 0.00 | 99 | 1017.5 |
| 20260505071444 | 33 | 239 | 0.0 | 0.0 | 0.00 | 0.00 | 0.00 | 99 | 1017.3 |
| 20260505070943 | 33 | 255 | 0.0 | 0.0 | 0.00 | 0.00 | 0.00 | 99 | 1017.7 |
| 20260505070439 | 33 | 254 | 0.0 | 0.0 | 0.00 | 0.00 | 0.00 | 99 | 1017.5 |
| 20260505065935 | 33 | 251 | 0.0 | 0.0 | 0.00 | 0.00 | 0.00 | 99 | 1017.7 |
| 20260505065431 | 33 | 258 | 1.0 | 3.0 | 0.00 | 0.00 | 0.00 | 99 | 1017.7 |
| 20260505064928 | 33 | 276 | 2.0 | 4.0 | 0.00 | 0.00 | 0.00 | 99 | 1017.9 |
| 20260505064425 | 33 | 287 | 2.0 | 2.0 | 0.00 | 0.00 | 0.00 | 99 | 1017.5 |
| 20260505063924 | 33 | 294 | 1.0 | 2.0 | 0.00 | 0.00 | 0.00 | 99 | 1017.9 |
| 20260505063420 | 33 | 269 | 0.0 | 1.0 | 0.00 | 0.00 | 0.00 | 99 | 1017.5 |
| 20260505062916 | 33 | 270 | 0.0 | 0.0 | 0.00 | 0.00 | 0.00 | 99 | 1017.5 |
| 20260505062414 | 34 | 301 | 1.0 | 2.0 | 0.00 | 0.00 | 0.00 | 99 | 1017.5 |
| 20260505061910 | 34 | 274 | 0.0 | 0.0 | 0.00 | 0.00 | 0.00 | 99 | 1017.4 |
| 20260505061409 | 34 | 236 | 0.0 | 0.0 | 0.00 | 0.00 | 0.00 | 99 | 1017.5 |
| 20260505060906 | 34 | 254 | 0.0 | 1.0 | 0.00 | 0.00 | 0.00 | 99 | 1017.5 |
| 20260505060402 | 34 | 271 | 0.0 | 0.0 | 0.00 | 0.00 | 0.00 | 99 | 1017.7 |
| 20260505055858 | 34 | 258 | 0.0 | 0.0 | 0.00 | 0.22 | 0.22 | 99 | 1017.4 |
| 20260505055355 | 34 | 277 | 0.0 | 0.0 | 0.00 | 0.22 | 0.22 | 99 | 1017.7 |
| 20260505054852 | 34 | 242 | 0.0 | 0.0 | 0.00 | 0.22 | 0.22 | 99 | 1017.8 |
| 20260505054349 | 34 | 254 | 0.0 | 0.0 | 0.00 | 0.22 | 0.22 | 99 | 1017.7 |
| 20260505053847 | 34 | 242 | 0.0 | 0.0 | 0.00 | 0.22 | 0.22 | 98 | 1017.7 |
| 20260505053344 | 34 | 242 | 0.0 | 0.0 | 0.00 | 0.22 | 0.22 | 98 | 1017.7 |
| 20260505052841 | 34 | 251 | 0.0 | 0.0 | 0.00 | 0.22 | 0.22 | 98 | 1017.7 |
| 20260505052337 | 34 | 257 | 0.0 | 0.0 | 0.00 | 0.22 | 0.22 | 98 | 1017.9 |
| 20260505051834 | 34 | 241 | 1.0 | 2.0 | 0.05 | 0.22 | 0.22 | 98 | 1017.9 |
| 20260505051332 | 34 | 228 | 3.0 | 6.0 | 0.05 | 0.22 | 0.22 | 98 | 1017.7 |
| 20260505050830 | 34 | 242 | 2.0 | 3.0 | 0.00 | 0.21 | 0.21 | 99 | 1017.7 |
| 20260505050329 | 34 | 236 | 2.0 | 6.0 | 0.00 | 0.21 | 0.21 | 99 | 1017.9 |
| 20260505041758 | 34 | 262 | 1.0 | 3.0 | 0.00 | 0.21 | 0.21 | 99 | 1018.3 |
| 20260505041255 | 34 | 240 | 3.0 | 4.0 | 0.00 | 0.21 | 0.21 | 98 | 1018.2 |
| 20260505040753 | 34 | 240 | 1.0 | 3.0 | 0.00 | 0.21 | 0.21 | 98 | 1018.6 |
| 20260505040250 | 34 | 240 | 2.0 | 3.0 | 0.07 | 0.21 | 0.21 | 98 | 1018.7 |
| 20260505035747 | 34 | 240 | 2.0 | 6.0 | 0.07 | 0.21 | 0.21 | 98 | 1018.3 |
| 20260505035242 | 34 | 215 | 3.0 | 6.0 | 0.00 | 0.20 | 0.20 | 98 | 1018.1 |
| 20260505034739 | 34 | 248 | 4.0 | 8.0 | 0.05 | 0.20 | 0.20 | 97 | 1018.2 |